TimeEST,TemperatureF,Dew PointF,Humidity,Sea Level PressureIn,VisibilityMPH,Wind Direction,Wind SpeedMPH,Gust SpeedMPH,PrecipitationIn,Events,Conditions,WindDirDegrees,DateUTC
12:53 AM,34.0,30.9,89,29.40,3.0,NNW,5.8,-,N/A,,Overcast,340,2013-03-04 05:53:00
1:23 AM,33.8,30.2,87,29.38,2.5,NNW,3.5,-,0.00,Snow,Light Snow,340,2013-03-04 06:23:00
1:38 AM,33.8,30.2,87,29.38,4.0,North,4.6,-,0.00,,Overcast,350,2013-03-04 06:38:00
1:53 AM,33.1,30.9,92,29.40,7.0,NNW,4.6,-,0.00,,Overcast,340,2013-03-04 06:53:00
2:46 AM,33.8,30.2,87,29.38,1.8,North,4.6,-,0.01,Snow,Light Snow,350,2013-03-04 07:46:00
2:53 AM,33.1,30.9,92,29.39,2.0,North,5.8,-,0.01,Snow,Light Snow,350,2013-03-04 07:53:00
3:07 AM,33.8,30.2,87,29.38,5.0,North,4.6,-,0.00,Snow,Light Snow,360,2013-03-04 08:07:00
3:53 AM,33.1,30.9,92,29.39,7.0,North,4.6,-,0.01,Snow,Light Snow,360,2013-03-04 08:53:00
4:53 AM,33.1,30.9,92,29.39,5.0,North,9.2,-,0.00,Snow,Light Snow,360,2013-03-04 09:53:00
5:04 AM,33.8,30.2,87,29.37,3.0,North,9.2,-,0.00,Snow,Light Snow,360,2013-03-04 10:04:00
5:53 AM,33.8,30.2,87,29.38,3.0,North,9.2,-,N/A,Snow,Light Snow,360,2013-03-04 10:53:00
6:01 AM,33.8,30.2,87,29.38,2.5,North,8.1,-,0.00,Snow,Light Snow,10,2013-03-04 11:01:00
6:16 AM,33.8,30.2,87,29.38,1.8,North,8.1,-,0.00,Snow,Light Snow,10,2013-03-04 11:16:00
6:27 AM,33.8,30.2,87,29.38,1.2,North,10.4,-,0.00,Snow,Light Snow,360,2013-03-04 11:27:00
6:37 AM,33.8,30.2,87,29.38,1.5,North,8.1,-,0.00,Snow,Light Snow,360,2013-03-04 11:37:00
6:53 AM,33.1,30.9,92,29.40,1.8,North,6.9,-,0.01,Snow,Light Snow,360,2013-03-04 11:53:00
7:12 AM,33.8,30.2,87,29.39,1.2,North,9.2,-,0.00,Snow,Light Snow,360,2013-03-04 12:12:00
7:53 AM,33.1,30.9,92,29.41,1.0,North,8.1,-,0.01,Snow,Light Snow,360,2013-03-04 12:53:00
8:53 AM,33.1,30.9,92,29.40,0.8,North,8.1,-,0.02,Snow,Light Snow,10,2013-03-04 13:53:00
9:14 AM,33.8,30.2,87,29.39,1.0,North,8.1,-,0.01,Snow,Light Snow,10,2013-03-04 14:14:00
9:42 AM,33.8,30.2,87,29.39,0.8,North,10.4,-,0.02,Snow,Light Snow,360,2013-03-04 14:42:00
9:53 AM,33.1,30.9,92,29.41,0.5,North,9.2,-,0.02,Fog-Snow,Snow,10,2013-03-04 14:53:00
10:18 AM,33.8,30.2,87,29.40,1.5,North,10.4,-,0.02,Snow,Light Snow,360,2013-03-04 15:18:00
10:28 AM,33.8,30.2,87,29.40,2.0,North,10.4,-,0.02,Snow,Light Snow,10,2013-03-04 15:28:00
10:36 AM,33.8,30.2,87,29.40,1.5,North,9.2,-,0.02,Snow,Light Snow,10,2013-03-04 15:36:00
10:43 AM,33.8,30.2,87,29.40,1.2,North,8.1,-,0.02,Snow,Light Snow,10,2013-03-04 15:43:00
10:47 AM,33.8,32.0,93,29.40,2.0,North,8.1,-,0.03,Snow,Light Snow,10,2013-03-04 15:47:00
10:53 AM,35.1,30.9,85,29.42,7.0,NNE,10.4,-,0.03,Snow,Light Snow,30,2013-03-04 15:53:00
11:04 AM,35.6,30.2,81,29.41,8.0,NE,12.7,-,0.00,,Overcast,40,2013-03-04 16:04:00
11:53 AM,35.1,30.0,82,29.43,10.0,NNE,13.8,-,0.00,,Overcast,30,2013-03-04 16:53:00
12:03 PM,35.6,30.2,81,29.41,10.0,NNE,10.4,-,N/A,,Overcast,30,2013-03-04 17:03:00
12:14 PM,35.6,30.2,81,29.41,9.0,NNE,6.9,-,N/A,,Overcast,30,2013-03-04 17:14:00
12:53 PM,36.0,30.0,79,29.43,8.0,NNE,13.8,-,0.00,,Overcast,30,2013-03-04 17:53:00
1:00 PM,35.6,30.2,81,29.41,9.0,NE,13.8,-,N/A,,Overcast,40,2013-03-04 18:00:00
1:15 PM,35.6,30.2,81,29.42,1.8,NE,15.0,31.1,0.00,Snow,Light Snow,40,2013-03-04 18:15:00
1:23 PM,35.6,30.2,81,29.42,3.0,NE,15.0,-,0.00,Snow,Light Snow,50,2013-03-04 18:23:00
1:42 PM,35.6,28.4,75,29.43,2.5,NE,12.7,24.2,0.01,Snow,Light Snow,50,2013-03-04 18:42:00
1:51 PM,35.6,30.2,81,29.43,5.0,NE,13.8,-,0.01,Snow,Light Snow,40,2013-03-04 18:51:00
1:53 PM,35.1,30.0,82,29.45,5.0,NE,12.7,-,0.01,Snow,Light Snow,40,2013-03-04 18:53:00
2:03 PM,35.6,30.2,81,29.44,2.0,NNE,13.8,-,0.00,Snow,Light Snow,30,2013-03-04 19:03:00
2:14 PM,33.8,30.2,87,29.44,1.5,NNE,13.8,-,0.00,Snow,Light Snow,30,2013-03-04 19:14:00
2:32 PM,33.8,30.2,87,29.45,1.2,NE,15.0,25.3,0.00,Snow,Light Snow,40,2013-03-04 19:32:00
2:45 PM,33.8,30.2,87,29.46,1.5,NNE,10.4,-,0.00,Snow,Light Snow,20,2013-03-04 19:45:00
2:53 PM,34.0,30.9,89,29.48,1.2,NNE,11.5,-,0.01,Snow,Light Snow,30,2013-03-04 19:53:00
3:02 PM,35.6,30.2,81,29.46,2.0,NE,12.7,-,0.00,Snow,Light Snow,40,2013-03-04 20:02:00
3:10 PM,35.6,30.2,81,29.47,4.0,NE,13.8,-,0.00,Snow,Light Snow,40,2013-03-04 20:10:00
3:53 PM,36.0,28.9,76,29.51,10.0,NNE,17.3,-,0.00,,Overcast,30,2013-03-04 20:53:00
4:07 PM,35.6,28.4,75,29.49,10.0,NE,13.8,25.3,N/A,,Overcast,40,2013-03-04 21:07:00
4:53 PM,36.0,28.9,76,29.54,10.0,NNE,13.8,-,N/A,,Overcast,30,2013-03-04 21:53:00
5:01 PM,35.6,28.4,75,29.52,10.0,NNE,16.1,23.0,N/A,,Overcast,30,2013-03-04 22:01:00
5:32 PM,35.6,28.4,75,29.54,10.0,NNE,13.8,-,N/A,,Overcast,20,2013-03-04 22:32:00
5:39 PM,35.6,28.4,75,29.55,10.0,NNE,13.8,-,N/A,,Overcast,30,2013-03-04 22:39:00
5:53 PM,35.1,28.9,78,29.57,10.0,NNE,15.0,-,N/A,,Overcast,30,2013-03-04 22:53:00
6:53 PM,35.1,28.0,76,29.61,10.0,NNE,11.5,-,N/A,,Overcast,30,2013-03-04 23:53:00
7:53 PM,34.0,28.9,82,29.63,3.0,NNE,12.7,20.7,0.00,Snow,Light Snow,20,2013-03-05 00:53:00
8:25 PM,33.8,30.2,87,29.63,3.0,NNE,13.8,-,0.00,Snow,Light Snow,20,2013-03-05 01:25:00
8:32 PM,33.8,30.2,87,29.63,2.5,NNE,10.4,-,0.00,Snow,Light Snow,20,2013-03-05 01:32:00
8:40 PM,33.8,30.2,87,29.63,4.0,NNE,11.5,-,0.00,Snow,Light Snow,20,2013-03-05 01:40:00
8:53 PM,33.1,28.9,85,29.66,8.0,NNE,11.5,-,0.00,Snow,Light Snow,20,2013-03-05 01:53:00
9:07 PM,33.8,28.4,81,29.64,5.0,NNE,10.4,-,0.00,Snow,Light Snow,20,2013-03-05 02:07:00
9:53 PM,33.1,28.9,85,29.68,10.0,NNE,9.2,-,0.00,,Overcast,20,2013-03-05 02:53:00
10:53 PM,34.0,28.9,82,29.70,10.0,NNE,10.4,-,N/A,,Overcast,20,2013-03-05 03:53:00
11:53 PM,34.0,28.9,82,29.72,10.0,NNE,10.4,-,N/A,,Overcast,20,2013-03-05 04:53:00